TimeCDT,TemperatureF,Dew PointF,Humidity,Sea Level PressureIn,VisibilityMPH,Wind Direction,Wind SpeedMPH,Gust SpeedMPH,PrecipitationIn,Events,Conditions,WindDirDegrees,DateUTC
12:44 AM,71.6,69.8,94,29.94,7.0,ENE,3.5,-,N/A,,Mostly Cloudy,70,2012-10-09 05:44:00
1:40 AM,71.6,69.8,94,29.96,7.0,Calm,Calm,-,N/A,,Scattered Clouds,0,2012-10-09 06:40:00
2:40 AM,69.8,68.0,94,29.94,7.0,Calm,Calm,-,N/A,,Scattered Clouds,0,2012-10-09 07:40:00
3:42 AM,71.6,69.8,94,29.96,7.0,Calm,Calm,-,N/A,,Partly Cloudy,0,2012-10-09 08:42:00
4:40 AM,69.8,68.0,94,29.93,7.0,Calm,Calm,-,N/A,,Partly Cloudy,0,2012-10-09 09:40:00
5:40 AM,69.8,68.0,94,29.93,7.0,Calm,Calm,-,N/A,,Partly Cloudy,0,2012-10-09 10:40:00
6:40 AM,69.8,68.0,94,29.93,7.0,Calm,Calm,-,N/A,,Scattered Clouds,0,2012-10-09 11:40:00
7:46 AM,71.6,69.8,94,29.97,7.0,Calm,Calm,-,N/A,,Scattered Clouds,0,2012-10-09 12:46:00
8:50 AM,78.8,77.0,94,29.99,7.0,Calm,Calm,-,N/A,,Scattered Clouds,0,2012-10-09 13:50:00
9:48 AM,82.4,75.2,79,30.03,7.0,ENE,4.6,-,N/A,,Mostly Cloudy,60,2012-10-09 14:48:00
10:43 AM,84.2,75.2,74,30.00,7.0,ENE,4.6,-,N/A,,Scattered Clouds,70,2012-10-09 15:43:00
11:49 AM,80.6,75.2,84,30.00,7.0,NE,6.9,-,N/A,,Mostly Cloudy,40,2012-10-09 16:49:00
12:43 PM,82.4,75.2,79,29.95,7.0,East,9.2,-,N/A,,Mostly Cloudy,80,2012-10-09 17:43:00
1:51 PM,84.2,75.2,74,29.95,8.0,SE,6.9,-,N/A,,Mostly Cloudy,130,2012-10-09 18:51:00
2:40 PM,84.2,75.2,74,29.93,8.0,East,6.9,-,N/A,,Scattered Clouds,80,2012-10-09 19:40:00
4:03 PM,84.2,73.4,70,29.94,8.0,East,6.9,-,N/A,,Mostly Cloudy,90,2012-10-09 21:03:00
4:41 PM,80.6,75.2,84,29.93,8.0,ENE,6.9,-,N/A,,Mostly Cloudy,70,2012-10-09 21:41:00
5:45 PM,78.8,75.2,89,29.92,8.0,East,3.5,-,N/A,,Mostly Cloudy,80,2012-10-09 22:45:00
6:48 PM,77.0,73.4,89,29.89,7.0,Calm,Calm,-,N/A,,Mostly Cloudy,0,2012-10-09 23:48:00
7:44 PM,75.2,73.4,94,29.94,7.0,Calm,Calm,-,N/A,,Mostly Cloudy,0,2012-10-10 00:44:00
8:48 PM,75.2,73.4,94,29.90,7.0,Calm,Calm,-,N/A,,Scattered Clouds,0,2012-10-10 01:48:00
9:54 PM,75.2,73.4,94,30.01,7.0,Calm,Calm,-,N/A,,Scattered Clouds,0,2012-10-10 02:54:00
10:47 PM,73.4,71.6,94,30.00,7.0,Calm,Calm,-,N/A,,Scattered Clouds,0,2012-10-10 03:47:00
11:47 PM,71.6,71.6,100,29.99,7.0,Calm,Calm,-,N/A,,Scattered Clouds,0,2012-10-10 04:47:00